Погода в Жуковке

Россия / Брянская область     53°31′59″N   33°43′57″E
темп.,
°C
ветер,
м/с
пор.,
м/с
влажн.,
%
обл.,
%
осадки,
мм/ч
давл.,
гПа
погр.,
м
6 марта, сб
сб600:00−7зсз37886 0.0 1017184
03:00−8сз399516 0.0 1018269
06:00−8сз499388 0.1 1018267
09:00−7сз368988 0.1 1020305
12:00−5сз357725 0.0 1020600
15:00−3сз466512 0.1 10191182
18:00−5з267636 0.0 1019193
21:00−7з388518 0.0 1019257
7 марта, вс
вс700:00−7зюз412820 0.0 1018411
03:00−7юз6148119 0.0 1015479
06:00−5юз71582100 0.0 1010756
09:00−4юз91791100 0.4 10051052
12:00−1зюз91789100 1.4 10021253
15:00−2сз71191100 3.3 1002895
18:00−4з3107261 0.2 1002379
21:00−4юз5118064 0.2 1002504
8 марта, пн
пн800:00−5зюз5138966 0.0 1000708
03:00−5з6148261 0.1 10001129
06:00−9зсз7167242 0.1 10021045
09:00−9сз7147730 0.1 1006873
12:00−7сз6107498 0.0 1008996
15:00−5зсз596990 0.0 10091169
18:00−6зсз498366 0.1 1010731
21:00−7зсз399279 0.1 1012620
9 марта, вт
вт900:00−9сз379194 0.0 1014300
03:00−11сз379294 0.1 1015329
06:00−13сз389382 0.0 1017328
09:00−12ссз488983 0.0 1019479
12:00−10сз467895 0.0 1020629
15:00−8сз467369 0.0 1020684
18:00−9зсз25820 0.0 1020189
21:00−9зюз388837 0.0 1021245
10 марта, ср
ср1000:00−9зюз4118465 0.0 1020343
03:00−8зюз4128175 0.0 1019362
06:00−8зюз41182100 0.0 1019378
09:00−7з51179100 0.0 1019455
12:00−4з4772100 0.0 1020711
15:00−2зсз3668100 0.0 10191181
18:00−6св3694100 0.3 1020261
21:00−9всв4793100 1.0 1022414